OpenBCM V1.07b12 (Linux)

Packet Radio Mailbox

SR8BBS

[OBCM_Lublin]

 Login: GUEST





  
I0OJJ  > KEPS     18.06.25 23:15z 343 Lines 16342 Bytes #2 (0) @ AMSAT
BID : ORB25169.1
Subj: 2Line Orbital Elements 25169.AMSAT
Path: SR8BBS<SR1BSZ<EA2RCF<I0OJJ
Sent: 250618/0025z @:I0OJJ.ITA.EU [Rome] obcm1.08-10-g596e
From: I0OJJ @ I0OJJ.ITA.EU (Gustavo)
To:   KEPS @ AMSAT
X-Info: This message was generated automatically


QST de W1STR

AMSAT Orbital Elements for Amateur Satellites in TLE Format
From Orbital Analysis Office
New England Sci-Tech STEM Education Center
Natick, MA June 18, 2025
To all radio amateurs


These element sets describe the orbits of various satellites 
in use by the amateur radio community. For details see:
www.amsat.org/keplerian-elements-formats/

A daily update of element sets is available at:
www.amsat.org/tle/daily-bulletin.txt
or without bulletin text:
www.amsat.org/tle/dailytle.txt


AO-07
1 07530U 74089B   25167.98073681 -.00000045  00000-0  67469-5 0  9993
2 07530 101.9927 172.3235 0012609 107.5210 284.3986 12.53689650314994
UO-11
1 14781U 84021B   25168.39423927  .00001254  00000-0  13769-3 0  9998
2 14781  97.7545 134.6079 0006736 320.2639  39.8085 14.89410315223801
AO-27
1 22825U 93061C   25168.11995448  .00000096  00000-0  53681-4 0  9993
2 22825  98.7361 229.7130 0009573  91.4198 268.8081 14.30802080655066
FO-29
1 24278U 96046B   25168.14547313 -.00000027  00000-0  10774-4 0  9991
2 24278  98.5751  61.0415 0349286 323.1699  34.5900 13.53249393424049
NOAA-15
1 25338U 98030A   25168.80490699  .00000208  00000-0  10332-3 0  9990
2 25338  98.5343 193.7379 0009718 342.2114  17.8725 14.26984211409579
GO-32
1 25397U 98043D   25168.84069827  .00000066  00000-0  48616-4 0  9997
2 25397  98.9704 148.1322 0001559 142.5335 217.5952 14.24317181399687
ISS
1 25544U 98067A   25168.86786280  .00009896  00000-0  17949-3 0  9992
2 25544  51.6388 303.6986 0001080 252.5767 244.0542 15.50263475515269
NO-44
1 26931U 01043C   25167.56155282  .00000155  00000-0  89143-4 0  9994
2 26931  67.0502 109.7887 0006103 276.3105  83.7302 14.31737982238266
SO-50
1 27607U 02058C   25168.71977799  .00001100  00000-0  15435-3 0  9998
2 27607  64.5510 175.4091 0057296 332.2165  27.5883 14.81644378210645
CO-55
1 27844U 03031E   25168.26836110  .00000294  00000-0  14711-3 0  9993
2 27844  98.6753 176.4425 0010051 158.3042 201.8564 14.24002400139763
CO-57
1 27848U 03031J   25168.50154749  .00000242  00000-0  12592-3 0  9993
2 27848  98.6780 176.6722 0009586 174.4012 185.7275 14.23336327139548
RS-22
1 27939U 03042A   25168.83959122  .00000954  00000-0  15907-3 0  9993
2 27939  98.3287 338.4907 0011114 350.5418 145.8236 14.72373636162041
CO-58
1 28895U 05043F   25167.66033194  .00001363  00000-0  23023-3 0  9993
2 28895  98.2508 312.0990 0013207 285.7161  74.2588 14.71036680 47981
CO-65
1 32785U 08021C   25168.45341364  .00003774  00000-0  27379-3 0  9990
2 32785  97.7864 139.6746 0009803 174.7968 185.3361 15.04504704930331
CO-66
1 32791U 08021J   25168.21438688  .00009883  00000-0  47698-3 0  9990
2 32791  97.7278 148.4257 0005371 125.4837 234.6898 15.18876758931730
RS-30
1 32953U 08025A   25168.85230465  .00000018  00000-0  54626-4 0  9998
2 32953  82.5023 222.0334 0019734  31.6572 328.5691 12.43165335774564
NOAA-19
1 33591U 09005A   25168.84040551  .00000182  00000-0  12121-3 0  9995
2 33591  98.9969 233.5910 0013287 344.9819  15.0956 14.13378407843273
SRMSAT
1 37841U 11058D   25168.15460146  .00000417  00000-0  82961-4 0  9999
2 37841  19.9712 108.7071 0011927 147.7503 240.3659 14.11438728706400
ZACUBE-1
1 39417U 13066B   25168.34149293  .00004231  00000-0  36817-3 0  9995
2 39417  97.7798 125.3128 0044705  27.9815 332.3796 14.96720598626072
Delfi-N3xt
1 39428U 13066N   25168.02336170  .00005848  00000-0  59538-3 0  9994
2 39428  97.8343  85.5905 0084101 337.2464  22.5033 14.88494006620363
GOMX-1
1 39430U 13066Q   25168.87190246  .00001767  00000-0  27983-3 0  9997
2 39430  97.6829  27.0276 0132715 165.2788 195.2342 14.67667393616621
LO-74
1 39440U 13066AA  25168.40072441  .00002982  00000-0  30416-3 0  9998
2 39440  97.8500 112.9068 0062644 152.8848 207.5665 14.89980116623803
AO-73
1 39444U 13066AE  25168.80558823  .00005771  00000-0  43167-3 0  9995
2 39444  97.7830 130.7530 0042159   2.3600 357.7815 15.02447569625418
DTUSAT-2
1 40030U 14033W   25168.65006007  .00005485  00000-0  35702-3 0  9996
2 40030  98.0561 140.8589 0010354  42.3220 317.8804 15.08363761598125
EO-80
1 40032U 14033Y   25168.47089269  .00006250  00000-0  40547-3 0  9993
2 40032  98.0437 140.3150 0007988 344.9701  15.1287 15.08444921598088
LILACSAT-2
1 40908U 15049K   25168.80197334  .00009957  00000-0  25879-3 0  9991
2 40908  97.5053 189.3468 0010891 125.6826 234.5435 15.39090097539499
IO-86
1 40931U 15052B   25151.18580175  .00001241  00000-0  78118-4 0  9996
2 40931   6.0006  24.0987 0012733 338.8432  21.1169 14.78805930523047
Horyu-4
1 41340U 16012D   25168.01023914  .00019348  00000-0  51091-3 0  9998
2 41340  30.9966  81.9583 0005674 139.5346 220.5722 15.37188006513934
Lapan A3
1 41603U 16040E   25168.87262454  .00003051  00000-0  10774-3 0  9996
2 41603  97.1368 173.1546 0009381 233.8525 126.1849 15.29912267499058
CAS-2T
1 41847U 16066G   25168.16858657  .00001604  00000-0  23533-3 0  9991
2 41847  98.4192 242.5653 0346735 155.3833 206.4362 14.43506442452111
CAS-4B
1 42759U 17034B   25168.77045032  .00065589  00000-0  65669-3 0  9990
2 42759  43.0062 273.0278 0020944 344.2490  15.7722 15.64394295443887
CAS-4A
1 42761U 17034D   25168.73290251  .00065457  00000-0  62012-3 0  9997
2 42761  43.0102 270.3159 0022127 348.4494  11.5861 15.65741564443905
TechnoSat
1 42829U 17042E   25168.43971281  .00001756  00000-0  13899-3 0  9998
2 42829  97.3880 336.7785 0014236 245.9711 114.0025 15.01747749431901
AO-91
1 43017U 17073E   25168.37355095  .00006912  00000-0  35238-3 0  9994
2 43017  97.5255  38.9484 0173492 139.6432 221.7820 15.04840703410380
S-Net D
1 43186U 18014G   25168.30869990  .00003253  00000-0  19368-3 0  9995
2 43186  97.5616  71.1364 0008639 187.2391 172.8716 15.11897148403540
S-Net B
1 43187U 18014H   25168.64512062  .00003336  00000-0  19861-3 0  9998
2 43187  97.5624  71.4415 0009508 182.1622 177.9568 15.11879737403597
S-Net A
1 43188U 18014J   25168.17668991  .00003231  00000-0  19233-3 0  9997
2 43188  97.5632  71.1291 0009331 184.4164 175.6985 15.11901044403524
S-Net C
1 43189U 18014K   25168.18424308  .00003365  00000-0  20023-3 0  9998
2 43189  97.5650  71.1520 0011070 178.3434 181.7835 15.11872367402071
Ten-Koh
1 43677U 18084G   25168.46424318  .00001790  00000-0  14680-3 0  9991
2 43677  98.0866 341.0326 0005899 226.0503 134.0233 15.00610018361428
PO-101
1 43678U 18084H   25168.80267334  .00001236  00000-0  10903-3 0  9992
2 43678  98.1035 345.2417 0007386 261.4588  98.5796 14.98365410361612
QO-100
1 43700U 18090A   25168.07475111  .00000155  00000-0  00000+0 0  9990
2 43700   0.0179  11.8399 0002254 111.4938 194.9466  1.00270706 24260
MinXSS-2
1 43758U 18099A   25167.87188598  .00013459  00000-0  52556-3 0  9997
2 43758  97.5008 233.9310 0013267 128.0028 232.2410 15.25937470358080
AO-95
1 43770U 18099N   25168.43068248  .00007430  00000-0  37487-3 0  9991
2 43770  97.4903 226.4295 0010974 176.2623 183.8694 15.17364525357747
RANGE-A
1 43773U 18099R   25168.09316582  .00003971  00000-0  25364-3 0  9990
2 43773  97.4468 216.2771 0011948 159.4043 200.7670 15.09152934357353
MOVE-II
1 43780U 18099Y   25168.76822312  .00309923  00000-0  15103-2 0  9990
2 43780  97.4643 245.0590 0005499 205.0279 155.0724 15.81537944359091
SNUSat 2
1 43782U 18099AA  25168.40195787  .00005274  00000-0  28759-3 0  9996
2 43782  97.4587 223.0890 0013627 123.7984 236.4547 15.14722846357683
SnugLite
1 43784U 18099AC  25168.12958035  .00007193  00000-0  35997-3 0  9994
2 43784  97.4398 222.3972 0005112 120.6117 239.5622 15.17698140357783
ITASat 1
1 43786U 18099AE  25168.41610560  .00005150  00000-0  29446-3 0  9999
2 43786  97.4556 222.5898 0014680 172.7576 187.3870 15.13024743357645
EAGLET 1
1 43790U 18099AJ  25168.10948145  .00003684  00000-0  23586-3 0  9992
2 43790  97.4748 222.2224 0012732 157.6246 202.5541 15.09112737357208
ESEO
1 43792U 18099AL  25168.12643895  .00001573  00000-0  12211-3 0  9998
2 43792  97.4488 215.4016 0014646 131.5724 228.6760 15.02652154356950
CSIM
1 43793U 18099AM  25168.19681367  .00074260  00000-0  44467-3 0  9993
2 43793  97.4786 246.6863 0005393 170.7876 189.3490 15.77597588358844
JO-97
1 43803U 18099AX  25168.15055473  .00008719  00000-0  39580-3 0  9990
2 43803  97.4651 227.1594 0009178 116.2382 243.9798 15.20997181357921
Suomi 100
1 43804U 18099AY  25168.11131294  .00008330  00000-0  40569-3 0  9991
2 43804  97.4715 226.3955 0013907 119.9094 240.3524 15.18529364357840
ISAT
1 43879U 18111D   25167.49265170  .00014916  00000-0  51288-3 0  9996
2 43879  97.5951  82.0389 0009326 160.1431 200.0174 15.30149762354751
UWE-4
1 43880U 18111E   25168.21234564  .00011121  00000-0  43303-3 0  9996
2 43880  97.5894  81.2001 0012003 173.9058 186.2328 15.26101481352793
Sparrow
1 43881U 18111F   25168.18778962  .00016711  00000-0  55242-3 0  9993
2 43881  97.6095  85.6565 0006135 192.3953 167.7137 15.31423979352954
Prox-1
1 44339U 19036A   25167.89943200  .00008535  00000-0  10663-2 0  9997
2 44339  23.9989  13.7126 0006826 155.4793 204.6030 14.80101425319195
SONATE
1 44400U 19038Q   25168.59514550  .00426349  81009-4  80062-3 0  9998
2 44400  97.6793 196.7812 0008609 192.5936 167.5128 16.00836083330851
Taurus 1
1 44530U 19059C   25168.78079330  .00004688  00000-0  86552-3 0  9994
2 44530  98.6082 308.5635 0009005  19.2918 340.8624 14.65938734305145
Duchifat 3
1 44854U 19089C   25168.75708395  .00037483  00000-0  71437-3 0  9998
2 44854  36.9431 303.1796 0003994  12.3678 347.7176 15.47236721304217
TO-108
1 44881U 19093C   25168.84442765  .00000836  00000-0  10261-3 0  9999
2 44881  97.7924 244.3214 0013308 198.6914 161.3814 14.85617415297305
